Location: Codford Saint Peter
(51.1597°N, 2.0531°W)
Time: 02:00:38
(UTC+00:00)

Cosmos 2082 Rocket - Pass Details

Date: 18 September 2020
Orbit: 834 x 853 km, 71.0° (Epoch: 30 October)

Event Time Altitude Azimuth Distance (km) Brightness Sun altitude
Rises 18:53:15 0° 326° (NW) 3,393 6.1 -6.8°
Reaches altitude 10° 18:57:25 10° 355° (N) 2,457 4.8 -7.5°
Maximum altitude 18:59:41 12° 20° (NNE) 2,290 4.4 -7.8°
Drops below altitude 10° 19:01:58 10° 44° (NE) 2,455 4.3 -8.2°
Enters shadow 19:04:47 - 66° (ENE) 3,028 4.6 -8.6°
